Wind_Speed
68 64 60 58 56 56 55 51 47 45 42 39 39 40 41 41 43 40 38 29 28 21 17 19 17 24 17 20 16 4 14 23 32 36 34 30 24 18 18 22 21 18 18
54 55 55 53 54 52 47 41 40 41 38 38 39 39 40 41 38 36 28 24 15 12 15 17 19 19 14 12 7 2 13 27 39 35 29 24 24 20 23 21 17 15 20
49 50 51 51 49 44 40 39 39 36 35 38 39 40 40 36 33 25 18 11 14 13 16 20 20 15 13 7 5 5 13 27 43 36 34 31 25 26 24 23 19 11 15
47 46 46 45 42 37 35 35 33 31 34 37 40 37 33 28 21 16 10 13 17 14 16 17 16 16 14 7 6 15 11 26 35 34 29 31 29 27 22 19 17 13 17
43 42 39 36 33 31 33 31 30 32 34 37 33 27 22 16 13 8 13 16 17 18 17 15 16 16 15 14 14 25 20 24 33 32 29 30 28 25 24 21 18 16 22
39 34 32 28 30 29 27 26 30 32 34 30 24 19 15 14 11 9 15 15 15 19 17 12 15 16 17 16 16 26 28 28 27 27 28 32 33 32 25 20 16 22 24
27 26 26 26 23 21 23 28 29 32 28 22 17 14 11 11 10 14 16 12 14 5 8 9 11 18 20 19 13 29 33 32 26 22 19 27 31 27 16 16 22 27 30
23 23 20 17 18 20 25 28 31 27 16 9 12 3 7 5 6 12 9 7 6 8 8 8 13 15 12 10 12 30 32 27 23 18 18 25 24 18 22 25 28 29 30
19 17 16 14 18 23 26 28 25 17 6 8 3 8 10 9 9 7 6 1 6 8 6 7 2 8 3 4 10 18 26 22 20 16 24 23 23 23 28 27 25 26 27
16 14 14 17 19 24 25 23 17 8 8 5 7 12 14 12 3 4 2 7 9 6 5 7 19 20 22 21 18 16 17 21 23 25 28 26 24 28 36 30 27 23 21
12 12 12 14 18 20 19 13 6 8 7 10 11 11 13 13 10 12 9 11 12 10 10 16 21 20 26 29 32 31 31 33 33 30 27 27 28 28 30 24 20 20 21
12 12 13 14 16 11 6 5 6 4 7 8 11 17 21 18 13 13 11 11 19 21 23 23 23 23 25 27 31 33 31 30 30 28 26 25 25 25 27 26 22 19 15
14 12 11 13 12 5 1 1 2 9 13 15 21 24 22 17 14 10 12 24 29 30 30 29 28 32 34 34 32 31 31 31 30 29 28 26 24 21 18 15 14 12 11
13 11 10 11 5 4 6 4 4 8 12 18 19 26 21 21 17 13 18 28 24 26 29 29 29 29 26 26 26 24 23 21 21 19 17 16 16 15 13 10 9 10 11
11 8 9 8 1 11 10 7 12 12 18 20 23 23 25 20 20 18 21 24 20 21 23 19 20 20 21 17 14 13 11 9 8 8 7 7 7 8 7 8 11 13 16
9 6 8 8 4 14 16 17 20 20 24 24 27 24 25 21 18 19 25 22 18 18 16 13 14 17 16 16 13 12 11 5 3 4 7 8 11 13 13 12 14 16 17
7 6 7 7 4 8 20 21 25 23 28 24 26 27 24 26 19 21 24 17 20 14 15 12 12 15 17 15 13 9 3 4 7 9 10 11 13 12 13 15 17 18 16
5 5 5 6 4 3 15 19 27 26 33 28 24 30 25 26 23 24 26 20 22 18 14 15 17 15 14 11 11 11 12 15 17 14 12 10 12 14 17 16 19 21 20
4 5 5 3 3 3 10 16 26 29 26 31 26 26 31 27 22 25 25 27 27 24 20 17 19 19 17 16 15 17 20 24 24 20 18 16 16 15 17 17 19 21 23
6 6 6 2 1 2 6 11 22 28 26 31 29 29 29 32 27 26 26 27 26 25 28 26 21 20 21 23 25 27 29 24 21 18 17 17 19 19 20 24 23 21 20
8 8 7 5 2 1 3 5 16 24 23 28 32 26 28 32 33 30 27 32 31 28 29 29 31 31 29 30 30 31 27 25 21 21 24 25 23 24 25 26 23 23 25
10 8 8 8 5 5 4 6 10 21 23 25 29 29 28 27 29 32 33 32 30 27 27 29 30 31 33 33 31 30 28 24 25 26 27 27 27 29 29 26 25 24 23
12 13 12 13 10 8 7 8 12 18 28 27 26 27 27 29 29 30 28 33 34 36 37 35 35 33 32 31 28 26 26 27 30 33 32 32 33 32 28 24 22 21 16
14 13 14 12 10 10 11 11 11 13 17 21 26 30 31 33 30 30 31 31 31 32 35 36 37 37 37 37 36 34 35 36 35 32 29 27 25 25 23 20 19 18 18
22 21 18 18 17 14 13 14 13 12 12 13 15 18 20 22 25 29 30 32 34 37 39 41 41 41 40 39 39 36 32 30 28 26 23 21 19 19 19 20 20 22 25
31 28 22 21 18 19 18 17 17 19 17 15 14 13 14 15 16 16 18 20 23 24 24 24 25 25 26 27 27 26 25 24 23 23 23 23 21 21 22 22 23 26 28
Wind_Direction
265 271 274 276 278 278 281 284 287 286 286 286 289 292 295 294 294 296 299 301 302 294 285 281 301 305 304 312 329 275 196 177 175 173 178 183 195 207 217 238 245 259 219
265 268 272 273 274 274 278 281 281 281 282 285 290 292 294 293 295 294 294 297 286 291 293 290 287 287 298 315 313 97 159 169 171 166 166 183 199 202 220 231 238 236 205
261 266 268 266 267 270 271 274 275 279 282 289 294 294 292 291 290 288 292 277 281 276 281 274 271 273 286 286 210 155 149 174 174 183 187 192 201 207 220 221 235 225 212
262 259 257 259 265 269 269 270 275 278 288 294 293 294 292 288 285 286 253 253 264 251 262 277 272 272 288 283 211 204 177 182 186 190 197 198 206 211 219 225 236 232 206
249 249 252 259 263 260 266 269 269 285 290 294 296 294 293 292 282 262 229 246 254 250 278 268 264 270 274 264 196 199 201 199 204 203 201 203 209 213 224 232 230 211 197
240 246 253 253 254 260 264 267 282 287 291 294 294 298 293 272 261 232 227 254 267 250 272 252 270 274 277 279 217 195 202 210 212 212 219 214 213 220 227 239 211 185 184
242 246 244 250 254 258 272 283 283 288 292 293 299 311 262 247 221 237 256 242 251 235 263 250 262 274 279 280 245 204 203 215 219 225 233 197 205 212 217 170 162 165 166
229 234 236 247 260 277 284 281 284 287 292 294 308 264 210 204 189 263 272 300 250 217 202 224 252 275 286 256 222 200 208 207 213 210 186 182 189 184 159 157 156 153 155
214 218 240 265 280 285 283 286 283 285 253 262 229 210 194 171 246 278 313 1 150 161 208 241 222 60 49 158 172 185 199 194 190 201 167 166 155 155 155 147 140 142 140
215 230 256 277 285 286 291 284 282 248 237 233 212 206 197 193 126 28 87 140 144 156 175 142 110 89 83 90 112 126 151 169 172 157 148 145 151 149 148 140 142 142 151
211 243 263 286 287 294 283 276 237 213 225 198 199 187 160 128 106 81 79 133 137 135 146 137 125 113 100 99 101 111 118 125 131 135 138 140 143 149 156 158 158 149 142
225 247 288 296 306 300 284 202 211 232 167 171 185 151 137 124 121 95 77 135 143 127 128 125 125 115 112 112 109 112 115 116 119 123 127 126 124 130 136 140 140 146 152
237 266 291 310 318 334 21 346 286 169 173 172 158 156 133 140 123 100 102 136 128 122 115 109 110 108 106 105 103 106 109 111 116 120 123 129 127 131 137 146 158 178 192
244 274 302 317 343 75 73 92 95 160 182 169 166 172 151 136 114 122 132 137 133 126 124 124 122 118 115 113 107 108 106 113 120 121 126 140 151 157 170 186 204 215 228
255 278 303 311 259 158 154 164 179 179 167 174 173 182 166 147 141 146 144 143 142 141 137 134 135 126 127 119 112 109 113 115 120 131 142 164 188 207 218 240 263 257 252
258 273 306 303 278 209 186 189 194 184 177 183 181 179 183 172 169 165 156 152 153 154 152 153 154 142 135 152 165 170 169 186 249 243 224 222 221 225 228 237 247 264 270
247 267 304 304 295 216 204 210 206 197 188 190 191 187 192 185 181 177 174 160 172 172 183 191 205 189 181 200 215 228 245 271 292 296 274 262 238 231 244 249 250 275 273
244 276 291 296 319 217 209 220 216 206 197 194 198 198 194 199 199 196 193 184 170 175 189 205 211 213 236 248 254 266 277 280 293 281 276 265 246 250 258 265 268 273 272
239 271 286 295 335 287 229 225 216 214 207 203 202 210 205 205 208 212 210 205 196 203 195 208 220 225 237 248 264 274 278 280 291 279 259 260 257 267 270 275 282 261 253
245 256 269 303 332 280 227 229 214 216 214 204 205 214 215 214 217 212 212 211 215 218 212 225 238 244 252 254 266 271 280 281 277 263 269 269 267 265 270 276 276 253 250
246 230 241 245 283 242 187 230 206 213 217 202 208 209 221 222 222 223 218 222 227 230 235 238 242 253 255 261 270 280 280 274 266 267 271 270 265 264 277 277 259 251 250
249 232 237 244 245 241 201 187 195 208 207 210 215 223 222 225 229 237 240 238 233 240 248 252 258 258 262 272 277 271 272 267 259 271 270 272 268 268 276 269 262 262 261
229 215 222 232 238 238 224 193 186 197 211 214 219 228 232 240 243 241 244 241 243 246 256 263 266 264 260 258 259 257 260 264 269 276 275 273 269 272 273 270 265 264 261
230 242 249 241 246 245 238 240 214 206 204 213 220 225 228 230 236 240 245 248 248 251 255 258 261 264 265 264 263 268 275 276 278 274 269 267 265 264 261 258 256 245 245
221 221 228 239 233 222 227 231 230 232 234 226 223 226 229 233 236 241 245 249 249 250 253 257 259 260 260 261 262 266 264 262 260 260 257 252 258 261 257 253 246 245 252
224 226 225 226 237 238 235 235 241 245 253 248 258 255 244 238 241 247 250 250 250 250 251 251 254 256 257 257 256 256 255 255 254 250 251 257 259 261 262 265 269 272 272
Height
10684 10686 10685 10684 10681 10678 10675 10672 10670 10666 10663 10661 10658 10656 10653 10649 10646 10642 10638 10635 10632 10631 10629 10627 10627 10625 10624 10620 10614 10612 10612 10618 10624 10631 10635 10639 10641 10643 10647 10649 10652 10653 10656
10673 10673 10672 10671 10668 10667 10665 10662 10660 10658 10655 10653 10651 10648 10645 10642 10637 10634 10633 10630 10628 10628 10626 10625 10624 10623 10621 10620 10616 10615 10614 10618 10625 10630 10633 10636 10638 10643 10646 10648 10651 10655 10655
10659 10661 10659 10658 10657 10658 10656 10653 10652 10650 10648 10645 10642 10638 10635 10632 10629 10628 10628 10626 10626 10625 10625 10622 10620 10620 10620 10620 10619 10618 10619 10620 10624 10627 10630 10634 10638 10641 10644 10648 10649 10650 10651
10648 10648 10647 10648 10649 10649 10648 10647 10645 10643 10641 10637 10633 10629 10626 10624 10622 10623 10624 10623 10622 10621 10621 10617 10617 10617 10617 10618 10619 10620 10620 10622 10624 10627 10630 10634 10638 10641 10642 10644 10645 10648 10651
10634 10637 10639 10641 10641 10640 10639 10640 10639 10636 10633 10629 10625 10622 10619 10618 10617 10619 10618 10618 10618 10617 10616 10614 10613 10614 10613 10614 10618 10619 10619 10620 10624 10628 10631 10634 10637 10639 10641 10642 10645 10647 10650
10625 10630 10632 10633 10633 10634 10634 10634 10631 10629 10625 10622 10619 10616 10614 10613 10614 10615 10614 10615 10615 10615 10613 10612 10611 10611 10609 10609 10613 10613 10616 10617 10622 10627 10630 10634 10636 10639 10640 10642 10643 10647 10653
10620 10623 10625 10627 10628 10629 10628 10626 10624 10622 10620 10617 10614 10613 10611 10611 10613 10612 10612 10611 10611 10612 10611 10611 10610 10607 10605 10604 10605 10608 10610 10612 10620 10625 10627 10629 10635 10639 10642 10644 10647 10650 10656
10615 10618 10620 10622 10623 10623 10621 10620 10618 10616 10614 10612 10612 10612 10611 10611 10613 10610 10608 10607 10608 10609 10610 10610 10609 10606 10601 10599 10598 10601 10605 10611 10618 10623 10626 10631 10637 10640 10643 10647 10650 10655 10660
10612 10614 10616 10617 10618 10617 10616 10614 10612 10611 10610 10611 10611 10611 10611 10613 10612 10610 10609 10608 10608 10609 10609 10609 10610 10606 10600 10597 10596 10599 10605 10611 10618 10622 10627 10632 10637 10642 10646 10651 10657 10660 10664
10608 10611 10614 10615 10614 10611 10609 10607 10606 10605 10608 10609 10610 10610 10611 10612 10613 10612 10610 10611 10611 10611 10611 10613 10612 10610 10606 10601 10601 10603 10606 10612 10619 10625 10631 10637 10641 10645 10650 10655 10659 10664 10669
10606 10608 10611 10611 10609 10606 10603 10601 10601 10603 10606 10607 10608 10610 10612 10614 10615 10614 10613 10614 10614 10614 10614 10616 10616 10616 10613 10612 10612 10613 10616 10621 10627 10633 10638 10642 10646 10651 10655 10659 10663 10667 10670
10605 10607 10606 10605 10603 10601 10598 10598 10600 10602 10603 10606 10608 10611 10614 10616 10617 10616 10616 10616 10618 10619 10619 10621 10621 10621 10622 10622 10624 10626 10630 10633 10637 10641 10646 10650 10654 10659 10662 10665 10668 10672 10675
10602 10604 10603 10601 10600 10598 10597 10598 10599 10601 10604 10607 10610 10613 10615 10618 10620 10620 10620 10621 10624 10625 10626 10628 10630 10631 10632 10633 10634 10637 10640 10644 10647 10650 10653 10657 10661 10664 10668 10671 10673 10674 10676
10599 10601 10599 10598 10598 10597 10597 10600 10602 10602 10605 10609 10612 10615 10618 10621 10621 10623 10626 10628 10630 10631 10633 10635 10637 10638 10640 10641 10643 10646 10649 10651 10654 10656 10659 10662 10665 10667 10669 10671 10673 10674 10675
10598 10597 10597 10596 10597 10597 10598 10600 10602 10603 10607 10610 10613 10616 10619 10622 10624 10626 10630 10633 10635 10637 10638 10640 10641 10643 10646 10648 10649 10651 10653 10655 10658 10660 10662 10664 10665 10667 10668 10669 10671 10671 10671
10596 10595 10594 10594 10595 10596 10597 10599 10601 10603 10606 10608 10613 10617 10620 10623 10627 10630 10632 10635 10638 10640 10642 10644 10646 10647 10648 10650 10652 10655 10656 10658 10659 10660 10661 10662 10663 10664 10665 10666 10667 10667 10668
10594 10593 10593 10592 10592 10593 10595 10598 10600 10603 10606 10608 10612 10617 10620 10624 10628 10631 10634 10637 10640 10642 10645 10647 10648 10649 10651 10652 10653 10655 10657 10658 10659 10660 10660 10660 10660 10661 10663 10664 10663 10663 10663
10591 10591 10592 10591 10590 10591 10593 10596 10598 10601 10605 10608 10612 10616 10620 10624 10627 10631 10634 10637 10640 10642 10645 10647 10648 10649 10650 10652 10653 10654 10656 10657 10658 10658 10658 10658 10659 10659 10659 10659 10659 10659 10659
10590 10591 10590 10589 10588 10589 10591 10593 10596 10599 10603 10607 10611 10615 10619 10624 10627 10630 10633 10636 10639 10641 10643 10646 10646 10647 10649 10650 10651 10652 10652 10653 10653 10654 10654 10654 10654 10654 10654 10654 10654 10653 10653
10589 10589 10589 10588 10587 10588 10589 10592 10594 10598 10601 10604 10609 10613 10616 10620 10623 10627 10631 10634 10636 10638 10640 10641 10642 10644 10646 10647 10648 10648 10649 10649 10648 10649 10649 10649 10649 10649 10648 10648 10647 10647 10646
10587 10587 10588 10587 10588 10588 10589 10590 10592 10596 10599 10603 10606 10611 10614 10618 10621 10624 10627 10630 10633 10635 10637 10639 10641 10642 10643 10644 10644 10644 10643 10643 10643 10643 10643 10643 10642 10642 10642 10641 10640 10640 10640
10585 10585 10585 10586 10587 10589 10590 10590 10592 10595 10599 10603 10606 10609 10612 10617 10620 10623 10626 10629 10632 10633 10635 10637 10637 10637 10638 10637 10637 10637 10637 10636 10636 10636 10636 10636 10636 10635 10635 10634 10634 10634 10634
10579 10581 10583 10585 10586 10590 10591 10591 10592 10593 10597 10600 10602 10606 10611 10613 10614 10616 10618 10621 10624 10624 10625 10625 10626 10627 10627 10626 10627 10628 10629 10630 10629 10629 10628 10628 10628 10628 10628 10627 10627 10628 10629
10576 10579 10581 10584 10587 10589 10590 10591 10591 10591 10592 10594 10598 10599 10600 10605 10608 10611 10613 10615 10616 10617 10618 10619 10619 10620 10621 10622 10623 10624 10625 10624 10622 10622 10621 10620 10620 10620 10619 10620 10620 10621 10621
10572 10575 10578 10581 10584 10588 10590 10592 10593 10593 10593 10594 10595 10597 10599 10600 10602 10604 10604 10605 10607 10607 10608 10608 10609 10611 10612 10613 10614 10614 10614 10613 10612 10613 10614 10614 10614 10614 10614 10614 10613 10613 10613
10567 10570 10573 10577 10580 10584 10587 10590 10591 10592 10591 10593 10594 10596 10597 10598 10599 10600 10601 10601 10602 10602 10602 10602 10602 10603 10604 10605 10605 10606 10607 10607 10608 10608 10608 10609 10610 10609 10607 10607 10608 10607 10606